Year,Month,Day,Hour,Minute,Value (Times are PST for temperature in C)
2007,08,14,00,00,10.90
2007,08,14,00,01,10.90
2007,08,14,00,02,10.90
2007,08,14,00,03,10.90
2007,08,14,00,04,10.90
2007,08,14,00,05,10.80
2007,08,14,00,06,10.80
2007,08,14,00,07,10.80
2007,08,14,00,08,10.80
2007,08,14,00,09,10.80
2007,08,14,00,10,10.80
2007,08,14,00,11,10.80
2007,08,14,00,12,10.80
2007,08,14,00,13,10.80
2007,08,14,00,14,10.90
2007,08,14,00,15,10.90
2007,08,14,00,16,10.90
2007,08,14,00,17,10.90
2007,08,14,00,18,10.90
2007,08,14,00,19,10.90
2007,08,14,00,20,10.90
2007,08,14,00,21,10.90
2007,08,14,00,22,10.90
2007,08,14,00,23,10.90
2007,08,14,00,24,10.90
2007,08,14,00,25,10.80
2007,08,14,00,26,10.80
2007,08,14,00,27,10.90
2007,08,14,00,28,10.90
2007,08,14,00,29,10.90
2007,08,14,00,30,10.90
2007,08,14,00,31,10.80
2007,08,14,00,32,10.80
2007,08,14,00,33,10.80
2007,08,14,00,34,10.90
2007,08,14,00,35,10.90
2007,08,14,00,36,10.90
2007,08,14,00,37,10.80
2007,08,14,00,38,10.80
2007,08,14,00,39,10.80
2007,08,14,00,40,10.80
2007,08,14,00,41,10.80
2007,08,14,00,42,10.80
2007,08,14,00,43,10.80
2007,08,14,00,44,10.80
2007,08,14,00,45,10.80
2007,08,14,00,46,10.80
2007,08,14,00,47,10.80
2007,08,14,00,48,10.80
2007,08,14,00,49,10.80
2007,08,14,00,50,10.80
2007,08,14,00,51,10.80
2007,08,14,00,52,10.80
2007,08,14,00,53,10.80
2007,08,14,00,54,10.80
2007,08,14,00,55,10.80
2007,08,14,00,56,10.80
2007,08,14,00,57,10.80
2007,08,14,00,58,10.80
2007,08,14,00,59,10.80
2007,08,14,01,00,10.90
2007,08,14,01,01,10.90
2007,08,14,01,02,10.90
2007,08,14,01,03,10.90
2007,08,14,01,04,10.90
2007,08,14,01,05,10.90
2007,08,14,01,06,10.90
2007,08,14,01,07,10.90
2007,08,14,01,08,10.90
2007,08,14,01,09,11.00
2007,08,14,01,10,10.90
2007,08,14,01,11,11.00
2007,08,14,01,12,11.00
2007,08,14,01,13,11.00
2007,08,14,01,14,11.00
2007,08,14,01,15,11.00
2007,08,14,01,16,11.00
2007,08,14,01,17,10.90
2007,08,14,01,18,10.90
2007,08,14,01,19,10.90
2007,08,14,01,20,11.00
2007,08,14,01,21,10.90
2007,08,14,01,22,11.00
2007,08,14,01,23,11.00
2007,08,14,01,24,10.90
2007,08,14,01,25,10.90
2007,08,14,01,26,10.90
2007,08,14,01,27,10.90
2007,08,14,01,28,10.90
2007,08,14,01,29,11.00
2007,08,14,01,30,11.00
2007,08,14,01,31,11.00
2007,08,14,01,32,11.00
2007,08,14,01,33,11.00
2007,08,14,01,34,11.00
2007,08,14,01,35,11.00
2007,08,14,01,36,11.10
2007,08,14,01,37,11.10
2007,08,14,01,38,11.10
2007,08,14,01,39,11.10
2007,08,14,01,40,11.00
2007,08,14,01,41,11.00
2007,08,14,01,42,11.00
2007,08,14,01,43,11.00
2007,08,14,01,44,11.00
2007,08,14,01,45,11.00
2007,08,14,01,46,11.00
2007,08,14,01,47,10.90
2007,08,14,01,48,10.90
2007,08,14,01,49,11.00
2007,08,14,01,50,11.00
2007,08,14,01,51,11.00
2007,08,14,01,52,11.00
2007,08,14,01,53,11.00
2007,08,14,01,54,11.00
2007,08,14,01,55,11.00
2007,08,14,01,56,11.00
2007,08,14,01,57,11.00
2007,08,14,01,58,11.00
2007,08,14,01,59,11.00
2007,08,14,02,00,11.00
2007,08,14,02,01,11.00
2007,08,14,02,02,11.00
2007,08,14,02,03,11.00
2007,08,14,02,04,11.00
2007,08,14,02,05,11.00
2007,08,14,02,06,11.00
2007,08,14,02,07,10.90
2007,08,14,02,08,10.90
2007,08,14,02,09,10.90
2007,08,14,02,10,10.90
2007,08,14,02,11,10.90
2007,08,14,02,12,11.00
2007,08,14,02,13,11.00
2007,08,14,02,14,11.00
2007,08,14,02,15,11.00
2007,08,14,02,16,11.00
2007,08,14,02,17,11.00
2007,08,14,02,18,10.90
2007,08,14,02,19,10.90
2007,08,14,02,20,10.90
2007,08,14,02,21,10.90
2007,08,14,02,22,10.90
2007,08,14,02,23,10.90
2007,08,14,02,24,10.90
2007,08,14,02,25,10.90
2007,08,14,02,26,10.90
2007,08,14,02,27,10.90
2007,08,14,02,28,10.90
2007,08,14,02,29,10.90
2007,08,14,02,30,10.90
2007,08,14,02,31,10.90
2007,08,14,02,32,10.90
2007,08,14,02,33,10.80
2007,08,14,02,34,10.80
2007,08,14,02,35,10.80
2007,08,14,02,36,10.80
2007,08,14,02,37,10.80
2007,08,14,02,38,10.80
2007,08,14,02,39,10.80
2007,08,14,02,40,10.80
2007,08,14,02,41,10.80
2007,08,14,02,42,10.80
2007,08,14,02,43,10.70
2007,08,14,02,44,10.70
2007,08,14,02,45,10.70
2007,08,14,02,46,10.80
2007,08,14,02,47,10.80
2007,08,14,02,48,10.80
2007,08,14,02,49,10.80
2007,08,14,02,50,10.80
2007,08,14,02,51,10.80
2007,08,14,02,52,10.80
2007,08,14,02,53,10.80
2007,08,14,02,54,10.80
2007,08,14,02,55,10.80
2007,08,14,02,56,10.70
2007,08,14,02,57,10.70
2007,08,14,02,58,10.70
2007,08,14,02,59,10.70
2007,08,14,03,00,10.70
2007,08,14,03,01,10.70
2007,08,14,03,02,10.70
2007,08,14,03,03,10.70
2007,08,14,03,04,10.70
2007,08,14,03,05,10.70
2007,08,14,03,06,10.70
2007,08,14,03,07,10.70
2007,08,14,03,08,10.70
2007,08,14,03,09,10.70
2007,08,14,03,10,10.70
2007,08,14,03,11,10.70
2007,08,14,03,12,10.70
2007,08,14,03,13,10.60
2007,08,14,03,14,10.60
2007,08,14,03,15,10.60
2007,08,14,03,16,10.60
2007,08,14,03,17,10.60
2007,08,14,03,18,10.60
2007,08,14,03,19,10.60
2007,08,14,03,20,10.60
2007,08,14,03,21,10.50
2007,08,14,03,22,10.50
2007,08,14,03,23,10.50
2007,08,14,03,24,10.60
2007,08,14,03,25,10.60
2007,08,14,03,26,10.60
2007,08,14,03,27,10.60
2007,08,14,03,28,10.60
2007,08,14,03,29,10.60
2007,08,14,03,30,10.60
2007,08,14,03,31,10.60
2007,08,14,03,32,10.50
2007,08,14,03,33,10.50
2007,08,14,03,34,10.50
2007,08,14,03,35,10.50
2007,08,14,03,36,10.50
2007,08,14,03,37,10.50
2007,08,14,03,38,10.50
2007,08,14,03,39,10.40
2007,08,14,03,40,10.40
2007,08,14,03,41,10.40
2007,08,14,03,42,10.40
2007,08,14,03,43,10.40
2007,08,14,03,44,10.40
2007,08,14,03,45,10.50
2007,08,14,03,46,10.50
2007,08,14,03,47,10.50
2007,08,14,03,48,10.50
2007,08,14,03,49,10.50
2007,08,14,03,50,10.50
2007,08,14,03,51,10.50
2007,08,14,03,52,10.40
2007,08,14,03,53,10.40
2007,08,14,03,54,10.40
2007,08,14,03,55,10.40
2007,08,14,03,56,10.40
2007,08,14,03,57,10.40
2007,08,14,03,58,10.40
2007,08,14,03,59,10.40
2007,08,14,04,00,10.30
2007,08,14,04,01,10.30
2007,08,14,04,02,10.30
2007,08,14,04,03,10.30
2007,08,14,04,04,10.30
2007,08,14,04,05,10.30
2007,08,14,04,06,10.30
2007,08,14,04,07,10.30
2007,08,14,04,08,10.30
2007,08,14,04,09,10.30
2007,08,14,04,10,10.30
2007,08,14,04,11,10.30
2007,08,14,04,12,10.30
2007,08,14,04,13,10.30
2007,08,14,04,14,10.30
2007,08,14,04,15,10.20
2007,08,14,04,16,10.20
2007,08,14,04,17,10.20
2007,08,14,04,18,10.20
2007,08,14,04,19,10.20
2007,08,14,04,20,10.20
2007,08,14,04,21,10.20
2007,08,14,04,22,10.20
2007,08,14,04,23,10.20
2007,08,14,04,24,10.20
2007,08,14,04,25,10.20
2007,08,14,04,26,10.20
2007,08,14,04,27,10.20
2007,08,14,04,28,10.20
2007,08,14,04,29,10.10
2007,08,14,04,30,10.10
2007,08,14,04,31,10.10
2007,08,14,04,32,10.10
2007,08,14,04,33,10.10
2007,08,14,04,34,10.00
2007,08,14,04,35,10.00
2007,08,14,04,36,10.00
2007,08,14,04,37,9.90
2007,08,14,04,38,9.90
2007,08,14,04,39,9.90
2007,08,14,04,40,9.90
2007,08,14,04,41,9.90
2007,08,14,04,42,9.90
2007,08,14,04,43,9.90
2007,08,14,04,44,9.90
2007,08,14,04,45,9.90
2007,08,14,04,46,9.90
2007,08,14,04,47,9.90
2007,08,14,04,48,9.90
2007,08,14,04,49,9.90
2007,08,14,04,50,9.90
2007,08,14,04,51,9.90
2007,08,14,04,52,9.90
2007,08,14,04,53,9.80
2007,08,14,04,54,9.80
2007,08,14,04,55,9.80
2007,08,14,04,56,9.80
2007,08,14,04,57,9.80
2007,08,14,04,58,9.80
2007,08,14,04,59,9.80
2007,08,14,05,00,9.80
2007,08,14,05,01,9.90
2007,08,14,05,02,9.90
2007,08,14,05,03,9.90
2007,08,14,05,04,9.90
2007,08,14,05,05,9.90
2007,08,14,05,06,9.90
2007,08,14,05,07,9.90
2007,08,14,05,08,9.90
2007,08,14,05,09,9.90
2007,08,14,05,10,9.90
2007,08,14,05,11,9.90
2007,08,14,05,12,9.90
2007,08,14,05,13,9.90
2007,08,14,05,14,9.90
2007,08,14,05,15,9.90
2007,08,14,05,16,9.90
2007,08,14,05,17,9.90
2007,08,14,05,18,9.90
2007,08,14,05,19,9.90
2007,08,14,05,20,9.90
2007,08,14,05,21,9.90
2007,08,14,05,22,9.90
2007,08,14,05,23,9.90
2007,08,14,05,24,9.90
2007,08,14,05,25,9.90
2007,08,14,05,26,9.90
2007,08,14,05,27,9.90
2007,08,14,05,28,9.90
2007,08,14,05,29,9.90
2007,08,14,05,30,9.90
2007,08,14,05,31,9.90
2007,08,14,05,32,9.90
2007,08,14,05,33,9.90
2007,08,14,05,34,9.90
2007,08,14,05,35,9.90
2007,08,14,05,36,9.90
2007,08,14,05,37,9.80
2007,08,14,05,38,9.80
2007,08,14,05,39,9.80
2007,08,14,05,40,9.80
2007,08,14,05,41,9.80
2007,08,14,05,42,9.80
2007,08,14,05,43,9.80
2007,08,14,05,44,9.80
2007,08,14,05,45,9.70
2007,08,14,05,46,9.70
2007,08,14,05,47,9.70
2007,08,14,05,48,9.70
2007,08,14,05,49,9.70
2007,08,14,05,50,9.70
2007,08,14,05,51,9.60
2007,08,14,05,52,9.60
2007,08,14,05,53,9.60
2007,08,14,05,54,9.60
2007,08,14,05,55,9.50
2007,08,14,05,56,9.50
2007,08,14,05,57,9.50
2007,08,14,05,58,9.50
2007,08,14,05,59,9.50
2007,08,14,06,00,9.50
2007,08,14,06,01,9.40
2007,08,14,06,02,9.50
2007,08,14,06,03,9.50
2007,08,14,06,04,9.40
2007,08,14,06,05,9.40
2007,08,14,06,06,9.40
2007,08,14,06,07,9.40
2007,08,14,06,08,9.40
2007,08,14,06,09,9.40
2007,08,14,06,10,9.40
2007,08,14,06,11,9.50
2007,08,14,06,12,9.50
2007,08,14,06,13,9.50
2007,08,14,06,14,9.50
2007,08,14,06,15,9.50
2007,08,14,06,16,9.50
2007,08,14,06,17,9.50
2007,08,14,06,18,9.50
2007,08,14,06,19,9.50
2007,08,14,06,20,9.50
2007,08,14,06,21,9.50
2007,08,14,06,22,9.50
2007,08,14,06,23,9.60
2007,08,14,06,24,9.60
2007,08,14,06,25,9.60
2007,08,14,06,26,9.60
2007,08,14,06,27,9.70
2007,08,14,06,28,9.70
2007,08,14,06,29,9.80
2007,08,14,06,30,9.90
2007,08,14,06,31,9.90
2007,08,14,06,32,10.00
2007,08,14,06,33,10.00
2007,08,14,06,34,10.00
2007,08,14,06,35,10.10
2007,08,14,06,36,10.10
2007,08,14,06,37,10.10
2007,08,14,06,38,10.20
2007,08,14,06,39,10.20
2007,08,14,06,40,10.20
2007,08,14,06,41,10.30
2007,08,14,06,42,10.30
2007,08,14,06,43,10.30
2007,08,14,06,44,10.30
2007,08,14,06,45,10.30
2007,08,14,06,46,10.20
2007,08,14,06,47,10.20
2007,08,14,06,48,10.20
2007,08,14,06,49,10.20
2007,08,14,06,50,10.30
2007,08,14,06,51,10.30
2007,08,14,06,52,10.30
2007,08,14,06,53,10.40
2007,08,14,06,54,10.40
2007,08,14,06,55,10.40
2007,08,14,06,56,10.40
2007,08,14,06,57,10.50
2007,08,14,06,58,10.60
2007,08,14,06,59,10.70
2007,08,14,07,00,10.80
2007,08,14,07,01,10.90
2007,08,14,07,02,11.00
2007,08,14,07,03,11.10
2007,08,14,07,04,11.20
2007,08,14,07,05,11.30
2007,08,14,07,06,11.40
2007,08,14,07,07,11.50
2007,08,14,07,08,11.50
2007,08,14,07,09,11.60
2007,08,14,07,10,11.70
2007,08,14,07,11,11.80
2007,08,14,07,12,11.90
2007,08,14,07,13,12.00
2007,08,14,07,14,12.10
2007,08,14,07,15,12.10
2007,08,14,07,16,12.20
2007,08,14,07,17,12.30
2007,08,14,07,18,12.30
2007,08,14,07,19,12.40
2007,08,14,07,20,12.40
2007,08,14,07,21,12.50
2007,08,14,07,22,12.60
2007,08,14,07,23,12.60
2007,08,14,07,24,12.70
2007,08,14,07,25,12.80
2007,08,14,07,26,12.90
2007,08,14,07,27,13.00
2007,08,14,07,28,13.10
2007,08,14,07,29,13.20
2007,08,14,07,30,13.30
2007,08,14,07,31,13.50
2007,08,14,07,32,13.60
2007,08,14,07,33,13.70
2007,08,14,07,34,13.80
2007,08,14,07,35,13.90
2007,08,14,07,36,14.00
2007,08,14,07,37,14.20
2007,08,14,07,38,14.30
2007,08,14,07,39,14.40
2007,08,14,07,40,14.40
2007,08,14,07,41,14.50
2007,08,14,07,42,14.60
2007,08,14,07,43,14.70
2007,08,14,07,44,14.70
2007,08,14,07,45,14.80
2007,08,14,07,46,14.90
2007,08,14,07,47,15.00
2007,08,14,07,48,15.00
2007,08,14,07,49,15.00
2007,08,14,07,50,15.20
2007,08,14,07,51,15.30
2007,08,14,19,06,21.20
2007,08,14,19,07,21.20
2007,08,14,19,08,21.10
2007,08,14,19,09,21.00
2007,08,14,19,10,20.90
2007,08,14,19,11,20.80
2007,08,14,19,12,20.70
2007,08,14,19,13,20.70
2007,08,14,19,14,20.60
2007,08,14,19,15,20.50
2007,08,14,19,16,20.40
2007,08,14,19,17,20.30
2007,08,14,19,18,20.30
2007,08,14,19,19,20.30
2007,08,14,19,20,20.20
2007,08,14,19,21,20.20
2007,08,14,19,22,20.20
2007,08,14,19,23,20.10
2007,08,14,19,24,20.10
2007,08,14,19,25,20.10
2007,08,14,19,26,20.10
2007,08,14,19,27,20.10
2007,08,14,19,28,20.00
2007,08,14,19,29,20.00
2007,08,14,19,30,19.90
2007,08,14,19,31,19.90
2007,08,14,19,32,19.90
2007,08,14,19,33,19.90
2007,08,14,19,34,19.90
2007,08,14,19,35,19.90
2007,08,14,19,36,19.90
2007,08,14,19,37,19.90
2007,08,14,19,38,19.90
2007,08,14,19,39,19.80
2007,08,14,19,40,19.60
2007,08,14,19,41,19.50
2007,08,14,19,42,19.40
2007,08,14,19,43,19.30
2007,08,14,19,44,19.30
2007,08,14,19,45,19.30
2007,08,14,19,46,19.30
2007,08,14,19,47,19.30
2007,08,14,19,48,19.30
2007,08,14,19,49,19.40
2007,08,14,19,50,19.40
2007,08,14,19,51,19.40
2007,08,14,19,52,19.40
2007,08,14,19,53,19.40
2007,08,14,19,54,19.40
2007,08,14,19,55,19.40
2007,08,14,19,56,19.40
2007,08,14,19,57,19.40
2007,08,14,19,58,19.30
2007,08,14,19,59,19.30
2007,08,14,20,00,19.20
2007,08,14,20,01,19.10
2007,08,14,20,02,19.10
2007,08,14,20,03,19.00
2007,08,14,20,04,18.90
2007,08,14,20,05,18.80
2007,08,14,20,06,18.70
2007,08,14,20,07,18.70
2007,08,14,20,08,18.60
2007,08,14,20,09,18.50
2007,08,14,20,10,18.50
2007,08,14,20,11,18.40
2007,08,14,20,12,18.40
2007,08,14,20,13,18.30
2007,08,14,20,14,18.20
2007,08,14,20,15,18.20
2007,08,14,20,16,18.10
2007,08,14,20,17,18.00
2007,08,14,20,18,17.90
2007,08,14,20,19,17.80
2007,08,14,20,20,17.80
2007,08,14,20,21,17.70
2007,08,14,20,22,17.60
2007,08,14,20,23,17.50
2007,08,14,20,24,17.40
2007,08,14,20,25,17.40
2007,08,14,20,26,17.30
2007,08,14,20,27,17.30
2007,08,14,20,28,17.20
2007,08,14,20,29,17.10
2007,08,14,20,30,17.10
2007,08,14,20,31,17.10
2007,08,14,20,32,17.00
2007,08,14,20,33,16.90
2007,08,14,20,34,16.90
2007,08,14,20,35,16.90
2007,08,14,20,36,16.80
2007,08,14,20,37,16.80
2007,08,14,20,38,16.80
2007,08,14,20,39,16.70
2007,08,14,20,40,16.70
2007,08,14,20,41,16.70
2007,08,14,20,42,16.70
2007,08,14,20,43,16.70
2007,08,14,20,44,16.60
2007,08,14,20,45,16.60
2007,08,14,20,46,16.60
2007,08,14,20,47,16.60
2007,08,14,20,48,16.50
2007,08,14,20,49,16.50
2007,08,14,20,50,16.40
2007,08,14,20,51,16.40
2007,08,14,20,52,16.40
2007,08,14,20,53,16.40
2007,08,14,20,54,16.30
2007,08,14,20,55,16.30
2007,08,14,20,56,16.30
2007,08,14,20,57,16.30
2007,08,14,20,58,16.20
2007,08,14,20,59,16.20
2007,08,14,21,00,16.20
2007,08,14,21,01,16.10
2007,08,14,21,02,15.90
2007,08,14,21,03,15.90
2007,08,14,21,04,15.80
2007,08,14,21,05,15.80
2007,08,14,21,06,15.80
2007,08,14,21,07,15.80
2007,08,14,21,08,15.80
2007,08,14,21,09,15.80
2007,08,14,21,10,15.80
2007,08,14,21,11,15.70
2007,08,14,21,12,15.70
2007,08,14,21,13,15.70
2007,08,14,21,14,15.70
2007,08,14,21,15,15.70
2007,08,14,21,16,15.70
2007,08,14,21,17,15.70
2007,08,14,21,18,15.70
2007,08,14,21,19,15.70
2007,08,14,21,20,15.80
2007,08,14,21,21,15.80
2007,08,14,21,22,15.80
2007,08,14,21,23,15.80
2007,08,14,21,24,15.80
2007,08,14,21,25,15.80
2007,08,14,21,26,15.80
2007,08,14,21,27,15.70
2007,08,14,21,28,15.70
2007,08,14,21,29,15.70
2007,08,14,21,30,15.70
2007,08,14,21,31,15.80
2007,08,14,21,32,15.80
2007,08,14,21,33,15.70
2007,08,14,21,34,15.70
2007,08,14,21,35,15.70
2007,08,14,21,36,15.70
2007,08,14,21,37,15.70
2007,08,14,21,38,15.70
2007,08,14,21,39,15.70
2007,08,14,21,40,15.70
2007,08,14,21,41,15.70
2007,08,14,21,42,15.70
2007,08,14,21,43,15.70
2007,08,14,21,44,15.70
2007,08,14,21,45,15.70
2007,08,14,21,46,15.70
2007,08,14,21,47,15.80
2007,08,14,21,48,15.70
2007,08,14,21,49,15.70
2007,08,14,21,50,15.70
2007,08,14,21,51,15.70
2007,08,14,21,52,15.70
2007,08,14,21,53,15.70
2007,08,14,21,54,15.70
2007,08,14,21,55,15.70
2007,08,14,21,56,15.70
2007,08,14,21,57,15.70
2007,08,14,21,58,15.70
2007,08,14,21,59,15.70
2007,08,14,22,00,15.80
2007,08,14,22,01,15.70
2007,08,14,22,02,15.70
2007,08,14,22,03,15.70
2007,08,14,22,04,15.70
2007,08,14,22,05,15.60
2007,08,14,22,06,15.60
2007,08,14,22,07,15.60
2007,08,14,22,08,15.50
2007,08,14,22,09,15.50
2007,08,14,22,10,15.40
2007,08,14,22,11,15.40
2007,08,14,22,12,15.40
2007,08,14,22,13,15.30
2007,08,14,22,14,15.30
2007,08,14,22,15,15.20
2007,08,14,22,16,15.10
2007,08,14,22,17,15.00
2007,08,14,22,18,15.00
2007,08,14,22,19,15.00
2007,08,14,22,20,15.00
2007,08,14,22,21,15.00
2007,08,14,22,22,15.00
2007,08,14,22,23,15.00
2007,08,14,22,24,15.00
2007,08,14,22,25,15.00
2007,08,14,22,26,15.00
2007,08,14,22,27,15.00
2007,08,14,22,28,15.00
2007,08,14,22,29,15.00
2007,08,14,22,30,15.00
2007,08,14,22,31,15.00
2007,08,14,22,32,15.00
2007,08,14,22,33,15.00
2007,08,14,22,34,15.00
2007,08,14,22,35,15.00
2007,08,14,22,36,15.00
2007,08,14,22,37,15.00
2007,08,14,22,38,15.00
2007,08,14,22,39,15.00
2007,08,14,22,40,15.00
2007,08,14,22,41,15.00
2007,08,14,22,42,15.00
2007,08,14,22,43,15.00
2007,08,14,22,44,15.00
2007,08,14,22,45,15.00
2007,08,14,22,46,15.00
2007,08,14,22,47,15.00
2007,08,14,22,48,15.00
2007,08,14,22,49,15.00
2007,08,14,22,50,15.00
2007,08,14,22,51,15.00
2007,08,14,22,52,14.90
2007,08,14,22,53,14.90
2007,08,14,22,54,14.80
2007,08,14,22,55,14.80
2007,08,14,22,56,14.80
2007,08,14,22,57,14.80
2007,08,14,22,58,14.80
2007,08,14,22,59,14.80
2007,08,14,23,00,14.80
2007,08,14,23,01,14.80
2007,08,14,23,02,14.80
2007,08,14,23,03,14.80
2007,08,14,23,04,14.80
2007,08,14,23,05,14.80
2007,08,14,23,06,14.80
2007,08,14,23,07,14.80
2007,08,14,23,08,14.80
2007,08,14,23,09,14.80
2007,08,14,23,10,14.80
2007,08,14,23,11,14.80
2007,08,14,23,12,14.80
2007,08,14,23,13,14.80
2007,08,14,23,14,14.80
2007,08,14,23,15,14.80
2007,08,14,23,16,14.80
2007,08,14,23,17,14.70
2007,08,14,23,18,14.70
2007,08,14,23,19,14.70
2007,08,14,23,20,14.70
2007,08,14,23,21,14.70
2007,08,14,23,22,14.60
2007,08,14,23,23,14.60
2007,08,14,23,24,14.60
2007,08,14,23,25,14.60
2007,08,14,23,26,14.50
2007,08,14,23,27,14.50
2007,08,14,23,28,14.40
2007,08,14,23,29,14.40
2007,08,14,23,30,14.40
2007,08,14,23,31,14.30
2007,08,14,23,32,14.30
2007,08,14,23,33,14.30
2007,08,14,23,34,14.30
2007,08,14,23,35,14.30
2007,08,14,23,36,14.20
2007,08,14,23,37,14.20
2007,08,14,23,38,14.20
2007,08,14,23,39,14.10
2007,08,14,23,40,14.10
2007,08,14,23,41,14.10
2007,08,14,23,42,14.10
2007,08,14,23,43,14.10
2007,08,14,23,44,14.00
2007,08,14,23,45,14.00
2007,08,14,23,46,13.90
2007,08,14,23,47,13.90
2007,08,14,23,48,13.90
2007,08,14,23,49,13.90
2007,08,14,23,50,13.90
2007,08,14,23,51,13.80
2007,08,14,23,52,13.80
2007,08,14,23,53,13.80
2007,08,14,23,54,13.80
2007,08,14,23,55,13.80
2007,08,14,23,56,13.80
2007,08,14,23,57,13.80
2007,08,14,23,58,13.80
2007,08,14,23,59,13.80
